Ashgabat, Turkmenistan

8:39 PM +05 on November 12, 2019 (GMT +0500)
Ashgabat

Weather History for UTAA - June, 2019

Change the Weather History Date:

Tuesday, June 11, 2019

  Actual Average (WUND) Record (WUND)
Temperature  
Mean Temperature 78 °F -  
Max Temperature 89 °F 98 °F - (-1)
Min Temperature 67 °F 71 °F - (-1)
Cooling Degree Days 13    
Growing Degree Days 28 (Base 50)    
Moisture  
Dew Point 41 °F    
Average Humidity 25    
Maximum Humidity 52    
Minimum Humidity 8    
Precipitation  
Precipitation 0.00 in 0.00 in - ()
Sea Level Pressure  
Sea Level Pressure 30.02 in    
Wind  
Wind Speed 6 mph ()    
Max Wind Speed 16 mph    
Max Gust Speed 21 mph    
Visibility 6.0 miles    
Events      
Averages and records for this station are not official NWS values.
T = Trace of Precipitation, MM = Missing Value Source: Averaged Metar Reports

Daily Weather History Graph

Daily Weather History Graph

Search for Another Location

Airport or City:

Astronomy

Jun. 11, 2019 Rise Set
Actual Time 5:43 AM +05 8:28 PM +05
Civil Twilight 5:12 AM +05 9:00 PM +05
Nautical Twilight 4:33 AM +05 9:39 PM +05
Astronomical Twilight 3:49 AM +05 10:23 PM +05
Moon 2:07 PM +05 (6/11) 2:06 AM +05 (6/11)
Length of Visible Light 15h 47m
Length of Day
14h 45m
Waxing Gibbous, 62% of the Moon is Illuminated
Jun 11
Waxing Gibbous
Jun 17
Full
Jun 25
Last Quarter
Jul 3
New
Jul 9
First Quarter

Hourly Weather History & Observations

Time (+05) Temp. Dew Point Humidity Pressure Visibility Wind Dir Wind Speed Gust Speed Precip Events Conditions
12:00 AM 71.6 °F 44.6 °F 38% 30.06 in 5.6 mi Variable 2.3 mph - N/A   Unknown
1:00 AM 69.8 °F 42.8 °F 38% 30.06 in 5.6 mi SW 2.3 mph - N/A   Unknown
2:00 AM 72 °F 46 °F 28% 30.06 in 6 mi South 4.5 mph - -  
2:00 AM 68.0 °F 44.6 °F 43% 30.06 in 5.6 mi South 4.6 mph - N/A   Unknown
3:00 AM 68.0 °F 41.0 °F 37% 30.06 in 5.6 mi Variable 2.3 mph - N/A   Unknown
4:00 AM 66.2 °F 42.8 °F 43% 30.06 in 6.2 mi SSE 4.6 mph - N/A   Unknown
5:00 AM 68 °F 47 °F 35% 30.05 in 6 mi Calm Calm - -  
5:00 AM 66.2 °F 44.6 °F 46% 30.04 in 6.2 mi Calm Calm - N/A   Unknown
6:00 AM 64.4 °F 46.4 °F 52% 30.06 in 5.6 mi SSE 4.6 mph - N/A   Unknown
7:00 AM 69.8 °F 44.6 °F 40% 30.06 in 6.2 mi Calm Calm - N/A   Unknown
8:00 AM 74 °F 40 °F 19% 30.06 in 6 mi ESE 6.7 mph - -  
8:00 AM 77.0 °F 42.8 °F 29% 30.06 in 6.2 mi East 6.9 mph - N/A   Unknown
9:00 AM 80.6 °F 39.2 °F 23% 30.06 in 6.2 mi East 11.5 mph - N/A   Unknown
10:00 AM 84.2 °F 41.0 °F 22% 30.06 in 5.6 mi ESE 11.5 mph - N/A   Unknown
11:00 AM 85 °F 42 °F 13% 30.05 in 6 mi ESE 15.7 mph - -  
11:00 AM 84.2 °F 39.2 °F 20% 30.06 in 5.0 mi East 13.8 mph - N/A   Unknown
12:00 PM 86.0 °F 37.4 °F 18% 30.04 in 5.6 mi East 9.2 mph 20.7 mph N/A   Unknown
1:00 PM 87.8 °F 39.2 °F 18% 30.04 in 6.2 mi East 13.8 mph - N/A   Unknown
2:00 PM 89 °F 35 °F 8% 30.01 in 6 mi ESE 11.2 mph - -   Clear
2:00 PM 87.8 °F 39.2 °F 18% 30.01 in 6.2 mi East 13.8 mph - N/A   Unknown
3:00 PM 87.8 °F 37.4 °F 17% 30.01 in 6.2 mi East 9.2 mph 20.7 mph N/A   Unknown
4:00 PM 89.6 °F 39.2 °F 17% 29.98 in 6.2 mi ESE 11.5 mph - N/A   Unknown
5:00 PM 89 °F 43 °F 12% 29.97 in 6 mi East 13.4 mph - -   Clear
5:00 PM 89.6 °F 39.2 °F 17% 29.98 in 6.2 mi East 13.8 mph - N/A   Unknown
6:00 PM 89.6 °F 39.2 °F 17% 29.95 in 6.2 mi East 11.5 mph - N/A   Unknown
7:00 PM 87.8 °F 37.4 °F 17% 29.95 in 6.2 mi East 11.5 mph - N/A   Unknown
8:00 PM 87 °F 38 °F 10% 29.94 in 6 mi East 11.2 mph - -   Clear
8:00 PM 86.0 °F 37.4 °F 18% 29.95 in 6.2 mi East 9.2 mph - N/A   Unknown
9:00 PM 82.4 °F 39.2 °F 21% 29.95 in 6.2 mi ESE 6.9 mph - N/A   Unknown
10:00 PM 78.8 °F 41.0 °F 26% 29.98 in 6.2 mi SE 9.2 mph - N/A   Unknown
11:00 PM 77 °F 41 °F 18% 29.96 in 6 mi East 6.7 mph - -  
11:00 PM 77.0 °F 44.6 °F 32% 29.95 in 6.2 mi ESE 6.9 mph - N/A   Unknown